| time (UTC) | temp F | wind direction | speed MPH | gust MPH | rain 1hr in | rain 24hr in | rain mn in | humidity % | barometer mb |
| 20260903020135 | 60 | 0 | 0.0 | 6.0 | 0.00 | 0.00 | 0.00 | 43 | 1012.4 |
| 20260903014630 | 60 | 317 | 1.0 | 8.0 | 0.00 | 0.00 | 0.00 | 44 | 1012.3 |
| 20260903013127 | 60 | 282 | 1.0 | 5.0 | 0.00 | 0.00 | 0.00 | 49 | 1012.3 |
| 20260903011622 | 59 | 287 | 4.0 | 11.0 | 0.00 | 0.00 | 0.00 | 44 | 1012.2 |
| 20260903010120 | 59 | 287 | 2.0 | 7.0 | 0.00 | 0.00 | 0.00 | 46 | 1012.2 |
| 20260903004612 | 59 | 300 | 3.0 | 7.0 | 0.00 | 0.00 | 0.00 | 43 | 1012.2 |
| 20260903003109 | 59 | 302 | 5.0 | 11.0 | 0.00 | 0.00 | 0.00 | 44 | 1012.0 |
| 20260903001605 | 59 | 0 | 0.0 | 11.0 | 0.00 | 0.00 | 0.00 | 44 | 1011.9 |
| 20260903000100 | 59 | 321 | 3.0 | 10.0 | 0.00 | 0.00 | 0.00 | 43 | 1011.8 |
| 20260902234557 | 58 | 333 | 3.0 | 7.0 | 0.00 | 0.00 | 0.00 | 43 | 1011.6 |
| 20260902233052 | 58 | 299 | 5.0 | 14.0 | 0.00 | 0.00 | 0.00 | 45 | 1011.5 |
| 20260902231547 | 58 | 0 | 0.0 | 9.0 | 0.00 | 0.00 | 0.00 | 44 | 1011.4 |
| 20260902230041 | 58 | 308 | 5.0 | 11.0 | 0.00 | 0.00 | 0.00 | 45 | 1011.3 |
| 20260902224537 | 57 | 315 | 2.0 | 13.0 | 0.00 | 0.00 | 0.00 | 45 | 1010.8 |
| 20260902223031 | 57 | 301 | 8.0 | 16.0 | 0.00 | 0.00 | 0.00 | 44 | 1010.8 |
| 20260902220020 | 57 | 296 | 9.0 | 16.0 | 0.00 | 0.00 | 0.00 | 45 | 1010.3 |
| 20260902214515 | 56 | 290 | 7.0 | 13.0 | 0.00 | 0.00 | 0.00 | 44 | 1010.2 |
| 20260902213010 | 56 | 304 | 2.0 | 15.0 | 0.00 | 0.00 | 0.00 | 47 | 1010.1 |
| 20260902211507 | 56 | 296 | 7.0 | 14.0 | 0.00 | 0.00 | 0.00 | 49 | 1010.0 |
| 20260902210002 | 56 | 303 | 6.0 | 13.0 | 0.00 | 0.00 | 0.00 | 50 | 1009.9 |
| 20260902202953 | 54 | 294 | 3.0 | 10.0 | 0.00 | 0.00 | 0.00 | 51 | 1009.8 |
| 20260902201449 | 54 | 289 | 1.0 | 11.0 | 0.00 | 0.00 | 0.00 | 54 | 1009.8 |
| 20260902194437 | 52 | 0 | 0.0 | 7.0 | 0.00 | 0.00 | 0.00 | 61 | 1009.6 |
| 20260902192933 | 50 | 315 | 1.0 | 7.0 | 0.00 | 0.00 | 0.00 | 64 | 1009.5 |
| 20260902191429 | 48 | 289 | 2.0 | 7.0 | 0.00 | 0.00 | 0.00 | 84 | 1009.4 |
| 20260902185925 | 47 | 0 | 0.0 | 3.0 | 0.00 | 0.00 | 0.00 | 90 | 1009.3 |
| 20260902184420 | 46 | 0 | 0.0 | 0.0 | 0.00 | 0.00 | 0.00 | 94 | 1009.2 |
| 20260902181413 | 41 | 0 | 0.0 | 0.0 | 0.00 | 0.00 | 0.00 | 95 | 1008.9 |
| 20260902175909 | 40 | 0 | 0.0 | 0.0 | 0.00 | 0.00 | 0.00 | 94 | 1008.9 |
| 20260902172859 | 37 | 0 | 0.0 | 0.0 | 0.00 | 0.00 | 0.00 | 94 | 1008.4 |
| 20260902171353 | 36 | 0 | 0.0 | 0.0 | 0.00 | 0.00 | 0.00 | 93 | 1008.4 |
| 20260902165851 | 35 | 0 | 0.0 | 0.0 | 0.00 | 0.00 | 0.00 | 93 | 1008.3 |
| 20260902164347 | 35 | 0 | 0.0 | 0.0 | 0.00 | 0.00 | 0.00 | 92 | 1007.9 |
| 20260902162843 | 35 | 0 | 0.0 | 0.0 | 0.00 | 0.00 | 0.00 | 93 | 1007.8 |
| 20260902155834 | 34 | 0 | 0.0 | 0.0 | 0.00 | 0.00 | 0.00 | 92 | 1007.3 |
| 20260902152826 | 35 | 0 | 0.0 | 0.0 | 0.00 | 0.00 | 0.00 | 92 | 1007.2 |
| 20260902151321 | 35 | 0 | 0.0 | 0.0 | 0.00 | 0.00 | 0.00 | 92 | 1007.1 |
| 20260902145817 | 35 | 0 | 0.0 | 0.0 | 0.00 | 0.00 | 0.00 | 92 | 1007.1 |
| 20260902144312 | 35 | 0 | 0.0 | 0.0 | 0.00 | 0.00 | 0.00 | 92 | 1007.0 |
| 20260902142807 | 35 | 0 | 0.0 | 0.0 | 0.00 | 0.00 | 0.00 | 92 | 1006.9 |
| 20260902141304 | 35 | 0 | 0.0 | 0.0 | 0.00 | 0.00 | 0.00 | 92 | 1006.7 |
| 20260902135759 | 35 | 0 | 0.0 | 0.0 | 0.00 | 0.00 | 0.00 | 91 | 1006.6 |
| 20260902134255 | 35 | 0 | 0.0 | 0.0 | 0.00 | 0.00 | 0.00 | 91 | 1006.6 |
| 20260902132752 | 36 | 0 | 0.0 | 0.0 | 0.00 | 0.00 | 0.00 | 91 | 1006.3 |
| 20260902131249 | 36 | 0 | 0.0 | 0.0 | 0.00 | 0.00 | 0.00 | 91 | 1006.1 |
| 20260902125744 | 36 | 0 | 0.0 | 0.0 | 0.00 | 0.00 | 0.00 | 92 | 1006.0 |
| 20260902122734 | 36 | 0 | 0.0 | 0.0 | 0.00 | 0.00 | 0.00 | 91 | 1005.5 |
| 20260902121229 | 36 | 0 | 0.0 | 0.0 | 0.00 | 0.00 | 0.00 | 91 | 1005.6 |
| 20260902115726 | 37 | 0 | 0.0 | 0.0 | 0.00 | 0.00 | 0.00 | 91 | 1005.6 |
| 20260902114222 | 37 | 0 | 0.0 | 0.0 | 0.00 | 0.00 | 0.00 | 91 | 1005.6 |
| 20260902112718 | 37 | 0 | 0.0 | 0.0 | 0.00 | 0.00 | 0.00 | 91 | 1005.6 |
| 20260902111213 | 37 | 0 | 0.0 | 0.0 | 0.00 | 0.00 | 0.00 | 91 | 1005.6 |
| 20260902105710 | 37 | 0 | 0.0 | 0.0 | 0.00 | 0.00 | 0.00 | 90 | 1005.6 |
| 20260902104206 | 37 | 0 | 0.0 | 0.0 | 0.00 | 0.00 | 0.00 | 90 | 1005.6 |
| 20260902102702 | 37 | 0 | 0.0 | 0.0 | 0.00 | 0.00 | 0.00 | 90 | 1005.6 |
| 20260902101157 | 37 | 0 | 0.0 | 0.0 | 0.00 | 0.00 | 0.00 | 89 | 1005.6 |
| 20260902095654 | 38 | 0 | 0.0 | 0.0 | 0.00 | 0.00 | 0.00 | 89 | 1005.7 |
| 20260902094150 | 38 | 0 | 0.0 | 0.0 | 0.00 | 0.00 | 0.00 | 89 | 1005.6 |
| 20260902092646 | 39 | 0 | 0.0 | 0.0 | 0.00 | 0.00 | 0.00 | 89 | 1005.5 |
| 20260902091142 | 39 | 0 | 0.0 | 0.0 | 0.00 | 0.00 | 0.00 | 89 | 1005.6 |
| 20260902085637 | 39 | 0 | 0.0 | 0.0 | 0.00 | 0.00 | 0.00 | 89 | 1005.5 |
| 20260902084132 | 40 | 0 | 0.0 | 0.0 | 0.00 | 0.00 | 0.00 | 89 | 1005.5 |
| 20260902082628 | 40 | 0 | 0.0 | 0.0 | 0.00 | 0.00 | 0.00 | 88 | 1005.3 |
| 20260902075617 | 42 | 0 | 0.0 | 0.0 | 0.00 | 0.00 | 0.00 | 89 | 1005.2 |
| 20260902072607 | 42 | 0 | 0.0 | 0.0 | 0.00 | 0.00 | 0.00 | 88 | 1005.2 |
| 20260902071104 | 43 | 0 | 0.0 | 0.0 | 0.00 | 0.00 | 0.00 | 87 | 1005.2 |
| 20260902064052 | 43 | 0 | 0.0 | 0.0 | 0.00 | 0.00 | 0.00 | 87 | 1005.3 |
| 20260902062548 | 44 | 0 | 0.0 | 0.0 | 0.00 | 0.00 | 0.00 | 85 | 1005.1 |
| 20260902055538 | 45 | 0 | 0.0 | 0.0 | 0.00 | 0.00 | 0.00 | 84 | 1005.0 |
| 20260902054033 | 46 | 0 | 0.0 | 0.0 | 0.00 | 0.00 | 0.00 | 83 | 1005.0 |
| 20260902051021 | 49 | 0 | 0.0 | 0.0 | 0.00 | 0.00 | 0.00 | 80 | 1004.8 |
| 20260902045517 | 50 | 0 | 0.0 | 0.0 | 0.00 | 0.00 | 0.00 | 79 | 1004.6 |
| 20260902044014 | 51 | 0 | 0.0 | 0.0 | 0.00 | 0.00 | 0.00 | 77 | 1004.6 |
| 20260902042510 | 52 | 0 | 0.0 | 0.0 | 0.00 | 0.00 | 0.00 | 76 | 1004.7 |
| 20260902041006 | 53 | 0 | 0.0 | 0.0 | 0.00 | 0.00 | 0.00 | 71 | 1004.8 |
| 20260902035502 | 54 | 0 | 0.0 | 0.0 | 0.00 | 0.00 | 0.00 | 69 | 1004.8 |
| 20260902033957 | 55 | 0 | 0.0 | 0.0 | 0.00 | 0.00 | 0.00 | 66 | 1004.7 |
| 20260902032454 | 56 | 0 | 0.0 | 0.0 | 0.00 | 0.00 | 0.00 | 66 | 1004.6 |
| 20260902030948 | 57 | 0 | 0.0 | 1.0 | 0.00 | 0.00 | 0.00 | 61 | 1004.5 |
| 20260902025438 | 58 | 0 | 0.0 | 1.0 | 0.00 | 0.00 | 0.00 | 60 | 1004.6 |
| 20260902023934 | 58 | 0 | 0.0 | 0.0 | 0.00 | 0.00 | 0.00 | 59 | 1004.5 |
| 20260902022430 | 58 | 0 | 0.0 | 3.0 | 0.00 | 0.00 | 0.00 | 52 | 1004.5 |